Hourly Weather Roundup
Issued by NWS Central Illinois

Home | Current Version | Previous Version | Text Only | Print | Product List | Glossary On
Versions: 1 2 3 4 5 6 7 8 9 10 11 12 13 14 15 16 17 18 19 20 21 22 23 24 25 26 27 28 29 30 31 32 33 34 35 36 37 38 39 40 41 42 43 44 45 46 47 48 49 50
000
NZUS43 KILX 201010
HWRILX

Area Weather Roundup
National Weather Service Lincoln IL
500 AM CDT SUN AUG 20 2017

NOTE:  "FAIR" indicates few or no clouds below 12,000 feet, with
       no sigificant weather and/or obstructions to visibility.


CITY           SKY/WX    TMP DP  RH WIND       PRES   REMARKS
Bloomington    CLEAR     66  63  90 S7        30.03R
Champaign      CLEAR     64  62  93 E5        30.01R
Danville       CLEAR     60  60  99 CALM      29.99R
Decatur        MOCLDY    63  62  97 E3        30.01R
Effingham      CLEAR     66  66 100 CALM      30.02R
Flora          PTCLDY    71  69  93 CALM      30.00R
Galesburg      CLEAR     64  62  93 E5        29.98F
Jacksonville   CLOUDY    64  62  94 CALM      29.98S
Lacon          CLEAR     63  61  94 CALM      29.99R
Lawrenceville  CLOUDY    68  67  96 CALM      30.00S FOG
Litchfield     CLEAR     68  66  92 S6        30.00R
$$


CITY           SKY/WX    TMP DP  RH WIND       PRES   REMARKS
Lincoln        CLEAR     66  65  97 CALM      30.00R
Macomb         CLOUDY    61  60  97 CALM      29.99S
Mattoon        CLEAR     67  67 100 SE3       29.99R
Mt Carmel AP   PTCLDY    65  64  96 E3        30.00R FOG
Olney-Noble AP CLOUDY    68  66  93 CALM      30.00R
Paris AP       CLEAR     60  60  99 CALM      30.02S FOG
Peoria         CLEAR     69  64  84 SE3       29.99R
Pontiac        CLEAR     60  59  98 CALM      30.02R
Rantoul        PTCLDY    67  64  91 CALM      30.01R
Robinson       FOG       62  62 100 CALM      30.02R VSB 1/2
Springfield    CLEAR     67  65  93 CALM      29.99R
Taylorville    CLEAR     68  67  97 CALM      30.00R
$$

...REGIONAL REPORTS...


CITY           SKY/WX    TMP DP  RH WIND       PRES   REMARKS
Chicago O`Hare CLEAR     64  57  78 S3        30.01R
Kankakee       CLEAR     61  59  94 CALM      30.03R
Moline         PTCLDY    65  60  84 E5        29.96F
Mount Sterling CLOUDY    64  63  99 SE3       29.97S FOG
Mount Vernon     N/A     69  68  96 CALM      30.00R FOG
Pittsfield     CLOUDY    65  65  97 CALM      29.98S FOG
Quincy         CLOUDY    69  66  90 S3        29.96S
Rockford       CLEAR     61  57  87 CALM      30.02R
$$


CITY           SKY/WX    TMP DP  RH WIND       PRES   REMARKS
Burlington     CLOUDY    67  66  97 CALM      29.95S
Cedar Rapids   CLOUDY    66  64  93 SE5       29.95S
Des Moines     TSTM      70  67  90 W17G32    29.97R FOG
Kirksville     CLOUDY    67  63  87 SE3       29.96S
Ottumwa        CLOUDY    69  66  90 E3        29.92F
St Louis       PTCLDY    75  70  84 CALM      29.99R
$$


CITY           SKY/WX    TMP DP  RH WIND       PRES   REMARKS
Terre Haute    FOG       63  61  93 CALM      30.01R VSB 1/2
Evansville     CLOUDY    69  67  93 CALM      30.01R
Indianapolis   CLEAR     69  63  81 E6        30.01R
Lafayette      CLEAR     63  62  97 CALM      30.01R
Madison        CLOUDY    62  59  90 CALM      30.00R
Milwaukee      CLEAR     66  57  72 S3        30.01R
$$






USA.gov is the U.S. government's official web portal to all federal, state and local government web resources and services.